TIME,DELAY(SENSOR),PRES,T(CTD),SAL,OXYGEN,RAWTEMP,T(OPTODE),TCPHASE,FLUOR,BETA(BETA700),BETA(BETA412),BETA(BETA440),CDOM,C(CSC),ED(ED412.40),ED(ED444.00),ED(ED489.70),ED(ED554.30),LU(LU411.80),LU(LU443.40),LU(LU489.60),LU(LU554.10),COMP,TILTX,TILTX(TILTY),CHECK
1375562140,5809,496.7799987792969000,6.5475997924804690,34.1269989013671900,77.6908035278320300,601.4799804687500000,6.5364460945129395,49.2029991149902340,52,103,87,80,77,15290,2147746395,2147424402,2148005851,2147876854,2147630153,2147069970,2148246445,2147201216,1975,3,13,35379
1375562255,5810,486.0700073242187500,6.8076000213623050,34.1066017150878900,84.2260131835937500,593.8723754882812000,6.7820339202880860,48.3296813964843750,51,103,86,81,78,15294,2147746294,2147424850,2148010230,2147878153,2147630893,2147067894,2148249901,2147201170,537,4,13,22959
1375562372,5810,475.4700012207031000,7.0198998451232910,34.1105003356933600,93.4898681640625000,586.9379272460938000,7.0054168701171875,47.1893081665039060,51,104,86,79,77,15292,2147745965,2147423296,2148009773,2147875803,2147629632,2147072694,2148246262,2147200466,3183,4,13,20662
1375562499,5807,463.7200012207031000,7.2680001258850100,34.0996017456054700,103.3553009033203100,579.2819213867188000,7.2515301704406740,46.0177497863769500,51,103,86,79,77,15292,2147744493,2147426843,2148008329,2147873929,2147627492,2147073572,2148235684,2147195218,111,3,12,6328
1375562614,5809,453.4700012207031000,7.5015001296997070,34.0920982360839840,112.4872970581054700,572.1007080078125000,7.4818968772888180,44.9791717529296900,52,106,86,79,76,15291,2147743305,2147427931,2148005860,2147872676,2147623433,2147076489,2148241874,2147199661,2653,4,13,20330
1375562732,5809,442.1900024414062500,7.6828999519348145,34.0876007080078100,119.8825988769531200,565.5548095703125000,7.6914901733398440,44.1542396545410160,50,105,85,79,76,15288,2147742848,2147421403,2148006372,2147875291,2147622555,2147075145,2148237970,2147195913,2534,4,13,10215
1375562847,5808,430.7000122070312500,8.0376996994018550,34.0915985107421900,128.9167022705078000,555.2197265625000000,8.0216598510742190,43.1390800476074200,50,104,86,79,74,15289,2147742281,2147424210,2148007460,2147872987,2147623085,2147078089,2148238628,2147200064,1595,4,13,31850
1375562950,5808,420.1300048828125000,8.2525997161865230,34.0943984985351560,136.1376953125000000,548.3436279296875000,8.2408275604248050,42.3800506591796900,50,104,87,79,75,15288,2147743570,2147425362,2148008118,2147873654,2147622537,2147081554,2148234432,2147201837,952,3,13,47677
1375563056,5810,409.4899902343750000,8.4730997085571290,34.0960998535156250,143.5603027343750000,540.4719238281250000,8.4912509918212890,41.6069183349609400,51,106,88,78,73,15285,2147741769,2147425298,2148005677,2147875245,2147622930,2147085376,2148239798,2147199497,410,3,12,15914
1375563171,5810,398.5499877929687500,8.6702995300292970,34.0954017639160160,150.4490966796875000,535.1243286132812000,8.6610965728759770,40.9456100463867200,50,106,87,79,73,15287,2147740946,2147423049,2148005586,2147872566,2147623488,2147080457,2148229184,2147203044,3089,3,13,17787
1375563298,5808,387.4899902343750000,8.9684000015258790,34.0941009521484400,159.9223022460937500,525.9055786132812000,8.9533624649047850,40.0389709472656250,50,104,85,79,73,15287,2147738998,2147426934,2148004864,2147873600,2147620288,2147086793,2148226240,2147201490,2987,3,13,5511
1375563440,5805,376.7300109863281000,9.3428001403808600,34.0997009277343750,173.2010040283203000,514.1525878906250000,9.3250322341918950,38.8494186401367200,50,104,85,79,71,15286,2147737846,2147422646,2148006811,2147876388,2147615588,2147091949,2148224960,2147199990,1297,3,13,32488
1375563591,5807,365.6099853515625000,9.5251998901367190,34.1052017211914060,179.8775024414062500,507.5708007812500000,9.5327291488647460,38.2677497863769500,49,106,87,80,71,15284,2147736420,2147422912,2148002834,2147873590,2147615094,2147093293,2148226413,2147200393,914,3,13,55248
1375563733,5811,354.1499938964844000,9.8934001922607420,34.1144981384277340,189.7993011474609400,496.2874145507812500,9.8880748748779300,37.4089813232421900,49,104,86,80,71,15288,2147738203,2147423286,2148008301,2147873115,2147613961,2147096374,2148226249,2147203309,3532,4,13,22214
1375563858,5809,343.0400085449219000,10.1093997955322270,34.1282997131347660,200.5706939697265600,489.1778869628906000,10.1115198135375980,36.6059989929199200,48,104,86,79,69,15288,2147737316,2147426724,2148007936,2147872475,2147612964,2147098962,2148221138,2147198555,2387,3,14,30368
1375563987,5805,332.1000061035156000,10.4711999893188480,34.1394004821777340,205.2597961425781200,478.1180114746094000,10.4584598541259770,36.1363296508789060,49,105,85,78,70,15285,2147735808,2147425600,2148011172,2147875721,2147611565,2147097993,2148224493,2147202331,2247,3,13,23457
1375564114,5807,321.6600036621094000,10.8489999771118160,34.1694984436035160,218.0149993896484400,466.1264038085937500,10.8337402343750000,35.1996498107910160,49,104,84,80,68,15290,2147730660,2147426020,2148014509,2147875163,2147609636,2147105993,2148223469,2147201782,2853,3,13,3378
1375564253,5808,310.0499877929687500,11.2859001159667970,34.1749992370605500,212.8269958496093800,452.0650939941406000,11.2726802825927730,35.2645988464355500,49,105,88,78,68,15286,2147732461,2147426605,2148006701,2147876260,2147607506,2147108909,2148221814,2147204589,2101,3,14,14526
1375564371,5806,299.7399902343750000,11.6718997955322270,34.1908988952636700,215.5025024414062500,439.5455017089844000,11.6625299453735350,34.9112701416015600,49,103,85,79,68,15282,2147729536,2147430171,2148028562,2147874514,2147604992,2147115794,2148227245,2147203739,2060,3,14,19556
1375564498,5808,288.5799865722656000,12.1716003417968750,34.2070999145507800,212.5325012207031200,423.1749877929687500,12.1710395812988280,34.8195495605468750,49,104,84,80,67,15286,2147728018,2147433371,2148034852,2147875364,2147604736,2147119104,2148224283,2147206080,1217,3,14,36324
1375564627,5806,277.8800048828125000,12.7210998535156250,34.2428016662597660,214.6697998046875000,405.6926879882812500,12.7126102447509770,34.4234504699707000,49,105,83,80,67,15284,2147727177,2147436635,2148047177,2147875657,2147599945,2147121545,2148232594,2147204946,427,3,14,61629
1375564778,5808,267.1700134277344000,13.4651002883911130,34.2990989685058600,215.1799011230468800,381.8023071289062500,13.4504699707031250,34.0261116027832000,49,107,86,80,68,15281,2147721252,2147439332,2148045165,2147871460,2147598619,2147127067,2148231460,2147205851,3511,3,14,3110
1375564992,5810,254.2100067138672000,14.1880998611450200,34.3620986938476560,216.4579925537109400,358.4085083007812500,14.1708402633667000,33.6007194519043000,48,104,86,80,66,15281,2147718838,2147457362,2148101997,2147874596,2147592685,2147136539,2148252013,2147209956,1281,3,13,63712
1375565129,5810,243.7200012207031200,14.8298997879028320,34.4337997436523440,216.7823028564453000,337.3652038574219000,14.8172597885131840,33.2691688537597660,49,105,86,79,66,15280,2147725376,2147474157,2148146697,2147870098,2147589293,2147160429,2148268653,2147209728,458,2,14,4329
1375565295,5807,228.2500000000000000,15.4534997940063480,34.4956016540527340,218.5805969238281200,315.0519104003906000,15.5013504028320310,32.8439903259277340,49,106,90,81,65,15273,2147723556,2147498313,2148195529,2147871378,2147587273,2147176365,2148287853,2147212553,3307,4,14,22252
1375565394,5810,217.3200073242187500,16.0496006011962900,34.5474014282226560,217.0690002441406200,296.3869934082031000,16.0727405548095700,32.6554489135742200,50,106,87,80,66,15276,2147732873,2147560905,2148352768,2147871012,2147588105,2147218770,2148366683,2147219876,2714,2,13,60969
1375565497,5803,206.8699951171875000,16.8295001983642580,34.6305007934570300,213.3896942138672000,271.7799072265625000,16.8251495361328120,32.5042190551757800,50,106,87,79,65,15268,2147743350,2147619721,2148452443,2147871625,2147589787,2147257014,2148412160,2147224329,1316,2,14,2693
1375565600,5808,197.7200012207031200,17.4291992187500000,34.7126998901367200,211.9878997802734400,252.3815002441406200,17.4178009033203120,32.3066902160644500,52,106,87,80,65,15266,2147766409,2147698468,2148598281,2147874907,2147595446,2147306697,2148480658,2147230473,1752,3,14,40649
1375565655,5806,193.2299957275390600,17.8155002593994140,34.7597007751464840,211.6033020019531200,239.7429962158203000,17.8038005828857420,32.1509590148925800,53,105,84,80,64,15263,2147779949,2147754404,2148692544,2147874971,2147600713,2147341211,2148520969,2147234340,1810,3,14,51075
1375565710,5808,188.9199981689453000,18.1319999694824220,34.8092002868652340,212.9105987548828000,228.3856048583984400,18.1506404876709000,31.9208507537841800,55,107,87,80,63,15257,2147801673,2147809801,2148801810,2147873920,2147608155,2147377325,2148570240,2147237888,1459,3,15,4172
1375565765,5808,184.6300048828125000,18.4603996276855470,34.8487014770507800,212.4980010986328000,217.0736999511718800,18.4960899353027340,31.7873096466064450,57,112,90,80,64,15253,2147829741,2147884790,2148931830,2147875090,2147613293,2147421366,2148632137,2147241197,2198,2,14,29607
1375565820,5809,180.3200073242187500,18.7602005004882800,34.8860015869140600,211.7976989746093800,206.9884033203125000,18.8041095733642580,31.6865005493164060,60,112,86,80,64,15245,2147860278,2147972013,2149088429,2147875026,2147627739,2147474761,2148705892,2147247204,1995,2,15,19169
1375565905,5811,174.1799926757812500,19.0785999298095700,34.9351005554199200,212.5182037353515600,198.1828002929687500,19.0730991363525400,31.5266094207763670,66,116,87,81,63,15247,2147922651,2148122770,2149331977,2147875593,2147649618,2147560960,2148826230,2147256539,1157,2,15,60749
1375565972,5810,169.8699951171875000,19.4127998352050780,34.9809989929199200,213.0536956787109400,187.7281951904297000,19.3925399780273440,31.3555507659912100,70,115,88,81,63,15240,2147985152,2148274331,2149583286,2147877110,2147673737,2147648649,2148927195,2147266304,1048,2,15,47062
1375566027,5811,166.4299926757812500,19.6492996215820300,35.0205993652343750,214.6645965576172000,179.7395935058593800,19.6367092132568360,31.1609096527099600,73,114,87,80,62,15234,2148039762,2148399881,2149781321,2147878235,2147698916,2147718299,2149019657,2147272512,1424,2,15,62522
1375566094,5808,162.5299987792968800,19.9069004058837900,35.0693016052246100,216.7897033691406200,172.3235931396484400,19.8634490966796880,30.9485893249511720,74,116,91,82,63,15233,2148118299,2148554688,2150040886,2147877760,2147729746,2147803611,2149128036,2147283520,1772,2,15,10708
1375566173,5811,158.4299926757812500,20.2665996551513670,35.1174011230468750,219.4810943603515600,159.6663970947265600,20.2506294250488280,30.6396808624267580,79,116,88,80,63,15227,2148227328,2148761435,2150371867,2147884781,2147774390,2147928000,2149282569,2147296173,2137,2,15,14891
1375566258,5810,155.3999938964843800,20.3735008239746100,35.1161994934082000,219.3385925292968800,155.9720001220703000,20.3636894226074220,30.5977706909179700,90,119,86,82,61,15220,2148320996,2148944100,2150648996,2147888356,2147812763,2148018313,2149393261,2147303405,1144,2,15,47313
1375566553,5807,150.1999969482422000,20.6623992919921880,35.1523017883300800,218.9799041748047000,145.7920989990234400,20.6753692626953120,30.4815597534179700,96,120,89,82,60,15201,2148670948,2149525394,2151442139,2147894006,2147951798,2148306212,2149719286,2147333613,3006,1,15,20824
1375566632,5807,146.3999938964843800,20.8868007659912100,35.2043991088867200,221.8186035156250000,139.3061981201172000,20.8740692138671880,30.2509498596191400,100,121,87,81,59,15201,2148934336,2149969920,2152097636,2147899721,2148056850,2148523026,2149983872,2147356662,2476,1,15,37063
1375566711,5810,142.1399993896484400,20.9972991943359380,35.2121009826660160,224.1775054931640600,135.0473937988281200,21.0045890808105470,30.0765209197998050,106,122,90,82,60,15197,2149255725,2150486107,2152816109,2147905581,2148189613,2148780717,2150281124,2147377270,1882,2,15,60
1375566778,5807,138.6100006103515600,21.2122001647949220,35.2504997253418000,225.8531036376953000,128.6705017089843800,21.2001094818115230,29.9098300933837900,109,121,87,81,60,15189,2149574272,2151010331,2153561883,2147916205,2148327442,2149038893,2150586477,2147406637,1103,1,15,35913
1375566860,5810,134.7500000000000000,21.3745002746582030,35.2795982360839840,228.4273071289062500,123.6213989257812500,21.3549900054931640,29.7180404663085940,110,122,89,82,61,15181,2149997376,2151669805,2154500187,2147926272,2148516059,2149370468,2150979913,2147434678,368,1,15,25810
1375566963,5808,130.7899932861328000,21.4722995758056640,35.2971992492675800,230.7485961914062500,120.0567016601562500,21.4643802642822270,29.5596504211425780,119,124,89,82,59,15165,2150562075,2152524882,2155707593,2147948397,2148755035,2149776164,2151452699,2147474057,3081,2,15,46593
1375567078,5807,127.0000000000000000,21.6305007934570300,35.3035011291503900,232.8616943359375000,114.8458023071289000,21.6243495941162100,29.3915996551513670,125,122,89,83,62,15160,2151070619,2153226240,2156593993,2147961435,2148973613,2150102866,2151816118,2147508342,2149,1,15,28551
1375567187,5809,122.2099990844726600,21.7196006774902340,35.2904014587402340,233.5251007080078000,112.0398025512695300,21.7105293273925780,29.3242397308349600,130,127,89,82,59,15147,2152216384,2154935725,2158899986,2148004480,2149428964,2150810276,2152638308,2147585993,1225,2,16,30414
1375567254,5812,118.4400024414062500,21.8698997497558600,35.3102989196777340,235.0883941650390600,107.3553009033203100,21.8544406890869140,29.1906509399414060,127,126,92,82,61,15145,2153478473,2156763584,2161242752,2148046966,2149923913,2151586706,2153518016,2147668992,414,1,15,58823
1375567333,5809,114.0899963378906200,21.9493007659912100,35.3089981079101560,236.3542022705078000,104.5516967773437500,21.9406108856201170,29.0956592559814450,134,122,90,82,60,15143,2154721499,2158362002,2163097243,2148094180,2150380763,2152195373,2154133394,2147731904,2970,1,16,53848
1375567400,5808,110.5699996948242200,21.9785995483398440,35.2703018188476560,236.0592956542968800,103.7183990478515600,21.9662303924560550,29.0985908508300780,134,128,88,84,61,15133,2156784018,2161178486,2166503798,2148170038,2151213942,2153473133,2155571401,2147865106,2780,2,15,21164
1375567494,5808,106.9000015258789000,22.1791000366210940,35.3106994628906250,236.1047058105468800,97.0813369750976600,22.1703300476074220,29.0120391845703120,133,122,91,82,60,15140,2159020169,2164120457,2169783460,2148248804,2152017554,2154588726,2156724754,2147984457,2133,1,16,52711
1375567621,5809,103.0599975585937500,22.3964996337890620,35.3031005859375000,239.1687011718750000,90.0406265258789000,22.3870105743408200,28.7815303802490230,110,121,93,83,59,15152,2162094893,2168037211,2173903469,2148380955,2153427117,2156442651,2158466340,2148166857,1102,1,16,19516
1375567813,5808,99.0699996948242200,22.6772003173828120,35.3163986206054700,242.0547027587890600,81.1767501831054700,22.6600608825683600,28.5391292572021500,86,122,89,83,59,15161,2167235401,2173928000,2179463003,2148558774,2155884626,2159616082,2161307629,2148437869,1710,2,15,26227
1375567880,5810,96.9599990844726600,22.7338008880615230,35.3138999938964840,242.9712982177734400,79.5068130493164000,22.7115306854248050,28.4771995544433600,80,125,89,83,59,15161,2160691748,2163887104,2166165906,2148262171,2153400521,2155378770,2156286144,2147971547,2048,2,15,26377
1375567947,5809,95.0000000000000000,22.8724002838134770,35.2970008850097660,244.0426940917968800,74.7604522705078100,22.8578891754150400,28.3699398040771500,80,124,90,84,59,15147,2174130825,2181825014,2187300196,2148834752,2159507739,2164340946,2165487808,2148826514,2424,1,15,29235
1375568014,5815,93.2799987792968800,22.9932994842529300,35.3072013854980500,244.9369964599609400,70.7201309204101600,22.9825496673584000,28.2797508239746100,82,123,89,83,58,15145,2174987474,2182445092,2187357440,2148882861,2160143314,2164932324,2165749266,2148852004,1765,1,15,12113
1375568099,5809,90.4800033569336000,23.0981006622314450,35.3112983703613300,245.9084014892578000,67.2417678833007800,23.0899200439453120,28.1937007904052730,78,125,91,84,59,15143,2181681609,2189824758,2194427968,2149197275,2163917933,2169581238,2169641572,2149242450,493,1,16,51437
1375568154,5803,87.9499969482421900,23.2537002563476560,35.3142013549804700,247.3547058105468800,63.0296401977539060,23.2200202941894530,28.0779304504394530,77,127,94,85,58,15122,2186399314,2194801280,2199122761,2149451602,2166733568,2172944557,2172386834,2149513051,3590,1,16,33935
1375568209,5809,85.7200012207031200,23.3822994232177730,35.3064994812011700,248.2489929199218800,58.4572601318359400,23.3613204956054700,27.9821891784667970,77,126,92,84,58,15118,2187317321,2195169618,2198670134,2149582802,2167776960,2173721417,2172608822,2149556233,561,1,16,56251
1375568264,5807,83.7600021362304700,23.4379997253417970,35.3045997619628900,248.8750000000000000,56.2195587158203100,23.4305095672607420,27.9274902343750000,75,125,90,85,60,15120,2186006756,2192838089,2195611556,2149592640,2166825819,2171818797,2170256457,2149373065,917,1,16,20955
1375568319,5808,82.2300033569336000,23.5498008728027340,35.3035011291503900,248.7989959716797000,52.6090202331543000,23.5421905517578120,27.8861808776855470,76,129,91,85,56,15113,2199908105,2208745517,2211778724,2150271405,2175183387,2182442386,2179712859,2150267748,41,2,15,7456
1375568404,5810,79.7900009155273400,23.7085990905761720,35.3053016662597660,249.8267059326172000,48.3666915893554700,23.6734905242919920,27.7895107269287100,74,129,93,85,56,15108,2206670107,2215287579,2217158857,2150696338,2179990125,2187392457,2183045595,2150615753,387,1,16,22920
1375568459,5807,77.6600036621093800,23.8250007629394530,35.3059997558593750,250.3280029296875000,43.2123908996582000,23.8331298828125000,27.7044391632080080,71,130,91,84,57,15103,2212922578,2221214619,2221898605,2151191268,2184455213,2191926930,2186218194,2150984694,904,1,16,55354
1375568514,5810,75.5000000000000000,23.9435997009277340,35.3060989379882800,251.7366943359375000,39.6206283569335940,23.9444408416748050,27.6004104614257800,72,128,94,85,56,15098,2219103625,2226993206,2226895323,2151608740,2189625417,2197262235,2189965942,2151368192,541,1,16,62348
1375568569,5806,73.4000015258789000,24.0897006988525400,35.3022994995117200,251.8908996582031200,35.1796493530273440,24.0821704864501950,27.5394706726074220,69,131,92,85,56,15092,2226729060,2234446637,2233574363,2152235035,2195240365,2203111213,2194138541,2151834313,375,1,15,54525
1375568624,5809,71.3199996948242200,24.1464996337890620,35.3084983825683600,252.1773986816406200,33.2594108581543000,24.1417503356933600,27.5037498474121100,69,129,93,83,55,15096,2233719579,2240942518,2239627904,2152879442,2200358592,2208169024,2197569344,2152254116,3185,1,16,8322
1375568708,5809,67.1900024414062500,24.4027996063232420,35.3093986511230500,251.4376068115234400,24.9591598510742200,24.3995094299316400,27.4334392547607420,64,128,93,86,58,15093,2248147867,2254183936,2251052918,2154787739,2212482825,2220027364,2205718601,2153244882,2068,1,16,20433
1375568763,5810,64.0800018310546900,24.5816001892089840,35.2930984497070300,251.6522064208984400,19.1142597198486330,24.5812301635742200,27.3528709411621100,65,128,92,85,54,15084,2261571538,2267947675,2264019986,2156325357,2223514532,2231075044,2213470784,2154212699,1407,1,16,49991
1375568818,5809,61.4500007629394500,24.6504993438720700,35.2843017578125000,251.9766998291015600,17.1135692596435550,24.6434803009033200,27.3147792816162100,63,129,90,84,56,15085,2271792905,2277074377,2271717549,2157819675,2234018395,2241116653,2220241472,2155133952,824,1,16,15843
1375568873,5808,59.2099990844726560,24.7035007476806640,35.2757987976074200,251.8462066650390600,14.8442001342773440,24.7141094207763670,27.2926292419433600,64,128,93,85,54,15079,2281918802,2286690962,2280659392,2159494656,2243339977,2250009563,2226279908,2155948041,603,1,16,43854
1375568928,5806,57.3400001525878900,24.9769992828369140,35.2649002075195300,250.7722015380859400,6.5213351249694820,24.9734001159667970,27.2366294860839840,63,129,95,87,57,15083,2289594075,2292856466,2285371117,2160624950,2252394322,2258325174,2231498569,2156668187,148,1,16,4384
1375568986,5811,56.1899986267089840,25.1294994354248050,35.2667007446289060,250.5184020996093800,2.0568430423736572,25.1126499176025400,27.1929607391357420,62,129,98,85,55,15077,2296645979,2299903835,2292873947,2162080941,2257246427,2262874797,2234418578,2157070180,2810,1,16,46333
1375569346,5807,54.1800003051757800,25.3999996185302730,35.2769012451171900,248.7879028320312500,-7.3685998916625980,25.4070091247558600,27.1517391204834000,60,130,93,88,57,15079,2311764955,2313355675,2303974464,2164707264,2276871954,2280892352,2245856146,2158395382,2756,1,16,31105
1375569425,5807,52.2999992370605500,25.9566001892089840,35.3095016479492200,245.2460937500000000,-23.3860893249511720,25.9085102081298830,27.1086502075195300,59,128,91,85,56,15082,2326232064,2327742336,2317695680,2166454784,2291854326,2294706166,2254646838,2159661037,2977,1,16,24854
1375569701,5809,50.5299987792968750,26.3346996307373050,35.2809982299804700,239.8605957031250000,-36.8759498596191400,26.3321609497070300,27.1790103912353500,57,128,92,87,55,15097,2335719872,2336916105,2326522285,2169434816,2303931629,2304221869,2259702061,2160762121,3323,0,16,22036
1375569840,5807,48.6100006103515600,26.5153999328613280,35.2920989990234400,238.0572967529297000,-42.8823394775390600,26.5211791992187500,27.1855201721191400,57,127,92,86,52,15094,2344343387,2344223396,2332592923,2171546596,2322083492,2320111497,2269214080,2161699812,2730,0,16,6391
1375569960,5809,45.9700012207031250,26.7915000915527340,35.3059005737304700,235.2947998046875000,-50.9836196899414060,26.7765407562255860,27.2101192474365230,55,129,91,86,58,15096,2293971501,2289974253,2278587977,2166219291,2282421412,2275304420,2234300827,2157797348,1955,1,16,35117
1375570015,5804,43.9399986267089840,26.8405990600585940,35.3092994689941400,234.3486938476562500,-53.2448310852050800,26.8479003906250000,27.2250804901123050,55,126,93,85,56,15102,2387586614,2389004827,2377697609,2183429869,2371787593,2365451062,2298883968,2166523062,1692,0,16,19657
1375570070,5808,41.8300018310546900,26.9202995300292970,35.3132019042968750,233.1170043945312500,-55.9293289184570300,26.9326591491699220,27.2479896545410160,55,123,91,85,57,15105,2390060388,2390433252,2379089069,2188212114,2386294948,2377285184,2306041106,2168315931,1035,1,16,19869
1375570125,5805,39.6500015258789060,26.9960994720459000,35.3125000000000000,232.3710021972656200,-58.0703582763671900,27.0002994537353500,27.2556400299072270,55,125,91,85,56,15110,2336876854,2332059995,2318976667,2178551442,2347724708,2334920009,2273117513,2163684132,572,1,16,10761
1375570180,5806,37.5200004577636700,27.0387992858886720,35.3149986267089840,231.8596038818359400,-59.2700119018554700,27.0382194519042970,27.2642097473144530,54,126,91,85,52,15106,2321640256,2315525348,2303566921,2178695570,2331452370,2317357851,2261112347,2162966390,110,1,17,20301
1375570265,5808,34.0400009155273440,27.2292995452880860,35.2850990295410160,230.2673034667968800,-65.6142120361328100,27.2389106750488280,27.2594108581542970,53,126,89,84,51,15100,2436484059,2436182509,2428071241,2215064000,2458434340,2440507373,2347348617,2177838848,3064,1,17,60765
1375570320,5817,31.8799991607666000,27.5526008605957030,35.2454986572265600,228.1065063476562500,-74.9202728271484400,27.5338497161865230,27.2452602386474600,53,126,89,85,55,15100,2454339675,2454885750,2447204361,2226064493,2478096804,2456868891,2357075017,2180421778,1016,0,16,40868
1375570399,5810,30.6700000762939450,27.5923995971679700,35.2454986572265600,226.8410034179687500,-77.6484298706054700,27.6204490661621100,27.2705593109130860,52,122,89,86,56,15106,2453306102,2454223021,2448501604,2230806427,2481939072,2459162925,2358149741,2181558528,468,1,17,27091